Home > Weather > Rosenheim > Past weeks

Flag for Germany Weather for the Past 2 Weeks in Rosenheim, Bavaria, Germany

Now
39 °F

Chilly.


Feels Like: 39 °F
Forecast: 39 / 71 °F
Wind: No wind

Location: Kufstein

Current Time: May 5, 2016 at 3:20:36 AM

Latest Report: May 5, 2016 at 2:00 AM


Visibility: N/A

Pressure: 30.37 "Hg

Humidity: 89%

Dew Point: 36 °F

Location of RosenheimLocation

Historic Weather in Rosenheim — Graph

°F

Rosenheim Temperature Yesterday

Maximum temperature yesterday: 51 °F (at 6:00 PM)
Minimum temperature yesterday: 44 °F (at 6:00 AM)
Average temperature yesterday: 46 °F

High & Low Weather Summary for the Past Weeks

 TemperatureHumidityPressure
High68 °F (Apr 22, 4:00 PM)96% (May 1, 11:00 PM)30.40 "Hg (May 1, 11:00 PM)
Low33 °F (Apr 26, 4:00 AM)28% (Apr 29, 4:00 PM)29.61 "Hg (Apr 26, 3:00 PM)
Average48 °F71%30.04 "Hg
* Reported Apr 20 2:00 AM — May 5 2:00 AM, Rosenheim, Weather by CustomWeather, © 2016

Note: Actual official high and low records may vary slightly from our data, if they occured in-between our weather recording intervals... More about our weather records

Advertising

Rosenheim Weather History for the Previous 24 Hours

Scroll right to see more
 ConditionsComfort  
Time TempWeatherWind HumidityBarometerVisibility
2:00 AM
Thu, May 5
39 °FChilly.No wind89%30.37 "HgN/A
1:00 AM41 °FQuite cool.No wind89%30.38 "HgN/A
12:00 AM43 °FQuite cool.No wind86%30.37 "HgN/A
11:00 PM
Wed, May 4
44 °FQuite cool.1 mph83%30.37 "HgN/A
10:00 PM45 °FCool.No wind82%30.36 "HgN/A
9:00 PM46 °FCool.No wind75%30.35 "HgN/A
8:00 PM48 °FCool.1 mph70%30.32 "HgN/A
7:00 PM50 °FCool.1 mph64%30.32 "HgN/A
6:00 PM51 °FCool.2 mph64%30.32 "HgN/A
5:00 PM49 °FCool.1 mph64%30.32 "HgN/A
4:00 PM49 °FCool.1 mph62%30.33 "HgN/A
3:00 PM49 °FCool.2 mph69%30.34 "HgN/A
2:00 PM49 °FCool.1 mph65%30.35 "HgN/A
1:00 PM48 °FCool.2 mph69%30.35 "HgN/A
12:00 PM47 °FCool.1 mph85%30.36 "HgN/A
11:00 AM45 °FQuite cool.No wind87%30.37 "HgN/A
10:00 AM46 °FCool.1 mph83%30.35 "HgN/A
9:00 AM45 °FQuite cool.1 mph89%30.35 "HgN/A
7:00 AM44 °FQuite cool.No wind95%30.34 "HgN/A
6:00 AM44 °FQuite cool.1 mph94%30.33 "HgN/A
5:00 AM44 °FQuite cool.1 mph92%30.32 "HgN/A
4:00 AM44 °FQuite cool.1 mph93%30.31 "HgN/A
3:00 AM44 °FQuite cool.1 mph93%30.30 "HgN/A
Weather by CustomWeather, © 2016

See weather overviewHow to use our weather pages